Regional Weather Roundup
Issued by NWS Jackson, KY

Home | Current Version | Previous Version | Text Only | Print | Product List | Glossary On
Versions: 1 2 3 4 5 6 7 8 9 10 11 12 13 14 15 16 17 18 19 20 21 22 23 24 25 26 27 28 29 30 31 32 33 34 35 36 37 38 39 40 41 42 43 44 45 46 47 48 49 50
000
ASUS43 KJKL 300010
RWRJKL

EAST KENTUCKY HOURLY WEATHER ROUNDUP
NATIONAL WEATHER SERVICE JACKSON KY
800 PM EDT FRI APR 29 2016

NOTE: "FAIR" INDICATES FEW OR NO CLOUDS BELOW 12,000 FEET WITH
NO SIGNIFICANT WEATHER AND/OR OBSTRUCTIONS TO VISIBILITY.

* THESE REPORTS ARE NOT UNDER NWS QUALITY CONTROL AND MAY NOT
  REPORT WEATHER SUCH AS PRECIPITATION AND FOG.

KYZ079-080-083-085-087-088-110-112-115-119-120-300100
...EASTERN KENTUCKY...

CITY           SKY/WX    TMP DP  RH WIND       PRES   REMARKS
JACKSON        PTCLDY    69  50  50 VRB6      30.03R
6HR MIN TEMP:  69; 6HR MAX TEMP:  76;

LONDON         CLOUDY    72  50  45 CALM      30.02S
6HR MIN TEMP:  72; 6HR MAX TEMP:  78;

SOMERSET*      CLOUDY    70  50  49 CALM      30.02S
MONTICELLO*    CLOUDY    68  58  70 NE12      30.02
6HR MIN TEMP:  68; 6HR MAX TEMP:  76;

WILLIAMSBURG*  CLOUDY    68  52  56 N3        30.01F
MIDDLESBORO*   CLOUDY    71  55  55 W3        30.01F
6HR MIN TEMP:  71; 6HR MAX TEMP:  80;

HARLAN APT*      N/A     70  46  43 CALM      30.03S
HAZARD APT*    CLEAR     70  50  49 NW6       30.02
BLACK MTN*       N/A     61  46  59 CALM        N/A
PIKE CO APT*     N/A     70  51  51 NW3       30.02R
BIG SANDY APT* CLOUDY    70  51  50 N3        30.02R
6HR MIN TEMP:  70; 6HR MAX TEMP:  78;

MOREHEAD APT*  MOCLDY    66  50  55 NW6       30.05S
$$

KYZ035-036-041-042-044-050-067-078-099-300100
...CENTRAL KENTUCKY...

CITY           SKY/WX    TMP DP  RH WIND       PRES   REMARKS
MT STERLING*   CLOUDY    64  52  63 NW3       30.05R
FLEMING/MASON* CLOUDY    64  50  60 N6        30.05S
DANVILLE*      CLOUDY    64  54  68 CALM      30.04S
RICHMOND*      CLOUDY    66  52  59 N3        30.03R
LEXINGTON      CLOUDY    65  50  58 N5        30.03S
6HR MIN TEMP:  65; 6HR MAX TEMP:  71;

FRANKFORT      CLOUDY    67  49  52 CALM      30.01F
6HR MIN TEMP:  67; 6HR MAX TEMP:  71;

LOUISVILLE     CLOUDY    70  47  43 CALM      30.01R
6HR MIN TEMP:  69; 6HR MAX TEMP:  72;

LEBANON*         N/A     66  55  68 CALM      30.02S
BOWLING GREEN  CLOUDY    69  59  70 CALM      29.99F
6HR MIN TEMP:  68; 6HR MAX TEMP:  75; 6HR PCP: TRACE;

$$

KYZ091>093-OHZ055-061-077-WVZ005-015-034-035-042-300100
...SOUTHERN OHIO/WEST VIRGINIA...

CITY           SKY/WX    TMP DP  RH WIND       PRES   REMARKS
COVINGTON      CLOUDY    63  49  60 W3        30.04R
COLUMBUS       CLOUDY    52  46  80 N10       30.07R
DAYTON         CLOUDY    54  47  77 N12       30.08R
WILMINGTON     CLOUDY    57  49  74 N8        30.06R
HUNTINGTON       N/A     68  52  56 N10       30.02R
CHARLESTON       N/A     65  52  62 N9        30.02R
PINEVILLE*       N/A     69  45  41 MISG      30.06R
BECKLEY          N/A     67  46  47 W6        30.03R
$$

VAZ002-007-008-TNZ017-027-036-066-071-300100
...SOUTHWEST VIRGINIA/EAST TENNESSEE...

CITY           SKY/WX    TMP DP  RH WIND       PRES   REMARKS
WISE*            N/A     68  37  32 NW3       30.08R
BRISTOL        CLOUDY    72  53  51 SW7       30.01R
MORRISTOWN*    CLEAR     73  52  46 CALM      30.00S
KNOXVILLE      CLOUDY    76  53  44 NE3       29.98F
OAK RIDGE      CLOUDY    75  58  55 CALM      30.00S
CROSSVILLE     CLOUDY    72  48  42 N3        30.04S
NASHVILLE      CLOUDY    68  61  78 SE6       29.95F
$$

...KEY TO REMARKS...
VSB - VISIBILITY IN MILES
WCI - WIND CHILL INDEX
HX  - HEAT INDEX

$$



USA.gov is the U.S. government's official web portal to all federal, state and local government web resources and services.